Startseite
Über Mich
AHP4
Galerie
Sehschlangen
Tourenbuch
Bookmarks
Elektronik
Bewertung
Geschichten
[Tagesmessung] [Jahreswerte] [Information]

Messwerte vom 18.06.2022

Die letzten Messwerte von 23:58:46 Uhr:
KategorieMesswert
Temperatur [°C]21
Luftdruck [mBar]998
Sonneneinstrahlung0
Wind [km/h]3 aus Nordost
Niederschlag [l/m²]0
rel.Luftfeucht.73.4%
CO2 [ppm]411

Diagramme
Messwerte vom 18.06.2022
Tagesaggregation
KategorieMinimumMaximumSchnittSumme
Temperatur [°C]123825.3458
Luftdruck [mBar]9961004999.8708
Sonneneinstrahlung246145.7563
Wind [km/h]14
rF [%]28.388.755.67
Niederschlag [l/m²]0
CO2 [ppm]401590457.1
Einordnung alsVegetationstag
Sommertag
Heißer Tag

Messungen an benachbarten Tagen: Zur Jahresaggregation 2022
Tabelle aller Messwerte
UhrzeitTemperatur [°C]Luftdruck [mBar]SonneWind [km/h]RichtungRegen [l/m²]rF [%]CO2 [ppm]
00:01:48 17 1004 0 4 SO 0 73 574
00:04:47 17 1004 0 6 SO 0 72.9 582
00:07:49 17 1004 0 2 SO 0 72.9 590
00:10:48 17 1003 0 4 SO 0 72.8 586
00:13:47 17 1004 0 1 SO 0 72 576
00:16:46 17 1004 0 1 N 0 71.7 572
00:19:49 17 1004 0 1 NW 0 71.8 574
00:22:48 17 1004 0 0 N 0 71.8 577
00:25:46 17 1004 0 0 N 0 71.6 577
00:28:46 17 1004 0 0 O 0 71.3 572
00:31:45 17 1003 0 0 O 0 70.9 573
00:34:47 17 1004 0 2 SO 0 70.8 571
00:37:49 17 1004 0 1 SO 0 70.4 562
00:40:49 17 1003 0 0 SO 0 70.3 568
00:43:47 17 1004 0 0 SO 0 70.3 573
00:46:48 17 1003 0 0 SO 0 70.5 565
00:49:48 17 1003 0 0 N 0 70.6 562
00:52:46 16 1003 0 1 O 0 70.4 562
00:55:46 16 1003 0 0 SO 0 70.5 562
00:58:47 16 1003 0 0 NW 0 70.6 564
01:01:46 16 1004 0 0 SO 0 70.8 562
01:04:48 16 1003 0 0 SO 0 70.5 557
01:07:48 16 1003 0 0 O 0 70.8 562
01:10:49 16 1003 0 0 SO 0 70.8 565
01:13:47 16 1004 0 1 W 0 70.9 562
01:16:46 16 1003 0 0 O 0 71.1 564
01:19:48 16 1003 0 0 O 0 71 557
01:22:46 16 1003 0 1 SO 0 71.1 553
01:25:47 16 1002 0 0 O 0 71.2 556
01:28:46 16 1003 0 0 O 0 71.4 556
01:31:48 16 1003 0 0 NW 0 71.6 559
01:34:48 16 1002 0 0 SO 0 71.8 559
01:37:47 16 1003 0 0 NW 0 72 553
01:40:47 16 1003 0 0 W 0 72 554
01:43:47 16 1002 0 0 W 0 71.9 550
01:46:48 16 1003 0 0 W 0 72 547
01:49:46 16 1003 0 0 W 0 72.9 548
01:52:45 16 1003 0 0 N 0 73.1 545
01:55:46 16 1003 0 0 W 0 73.1 538
01:58:46 15 1002 0 1 NW 0 73.8 534
02:01:48 15 1003 0 0 SO 0 74.6 527
02:04:47 15 1002 0 0 N 0 74.6 540
02:07:47 15 1002 0 0 O 0 75.2 538
02:10:50 15 1002 0 0 NO 0 75.6 539
02:13:47 15 1002 0 0 NO 0 75.8 536
02:16:46 15 1003 0 0 O 0 76.2 533
02:19:49 15 1002 0 0 O 0 76.1 532
02:22:44 14 1002 0 0 N 0 76.3 530
02:25:46 14 1002 0 0 N 0 77 530
02:28:50 14 1002 0 0 N 0 77.7 524
02:31:47 14 1002 0 0 N 0 78.1 525
02:34:46 14 1002 0 0 N 0 78.1 521
02:37:48 14 1002 0 0 N 0 79 527
02:40:46 14 1002 0 0 N 0 79 524
02:43:45 14 1002 0 0 N 0 79.3 527
02:46:46 14 1002 0 0 N 0 80 531
02:49:48 14 1002 0 0 N 0 81 527
02:52:47 14 1002 0 0 O 0 81.1 527
02:55:48 14 1002 0 0 O 0 80.8 527
02:58:47 14 1002 0 0 O 0 80.9 524
03:01:46 14 1002 0 0 O 0 81 524
03:04:46 13 1002 0 0 N 0 81.1 524
03:07:47 13 1002 0 0 N 0 81.5 528
03:10:46 13 1002 0 0 N 0 82.5 525
03:13:48 13 1002 0 0 N 0 82.9 524
03:16:45 13 1002 0 0 N 0 83.1 518
03:19:46 13 1002 0 0 NW 0 83.7 524
03:22:45 14 1002 0 0 N 0 84.4 524
03:25:48 14 1002 0 0 NO 0 83.9 518
03:28:47 13 1002 0 0 N 0 83.4 509
03:31:47 13 1002 0 0 N 0 83.7 512
03:34:48 13 1002 0 0 N 0 83.7 515
03:37:46 13 1002 0 0 N 0 83.5 515
03:40:47 13 1002 0 0 N 0 83.5 515
03:43:45 13 1002 0 0 N 0 83.4 517
03:46:47 13 1002 0 0 N 0 83.4 506
03:49:47 13 1002 0 0 N 0 83.4 504
03:52:46 13 1002 0 0 N 0 83.7 509
03:55:48 13 1002 0 0 N 0 83.7 516
03:58:47 13 1002 0 0 N 0 83.9 514
04:01:46 13 1002 0 0 N 0 84.3 513
04:04:48 13 1002 0 0 N 0 84.9 509
04:07:47 13 1002 0 0 NO 0 85.8 506
04:10:48 13 1002 0 0 NO 0 86.4 503
04:13:48 13 1002 0 0 NO 0 86.3 504
04:16:49 13 1002 0 0 NO 0 86.2 509
04:19:49 13 1002 0 0 NO 0 86.2 504
04:22:47 13 1002 3 0 NO 0 86.3 497
04:25:49 13 1002 5 0 NO 0 86.6 497
04:28:48 13 1002 7 0 N 0 86.8 503
04:31:48 13 1002 10 0 N 0 87.4 507
04:34:47 13 1002 14 0 O 0 87.4 509
04:37:46 12 1002 19 0 O 0 87.4 509
04:40:47 12 1002 25 0 O 0 87.1 506
04:43:48 12 1002 32 0 O 0 87.4 501
04:46:47 12 1002 40 0 O 0 87.6 503
04:49:49 12 1002 49 0 O 0 87.9 500
04:52:50 12 1002 58 0 O 0 88.2 500
04:55:47 12 1002 67 0 O 0 88 495
04:58:49 12 1002 76 0 O 0 87.8 497
05:01:48 12 1001 86 0 O 0 87.8 489
05:04:47 12 1001 94 0 O 0 88 486
05:07:51 12 1002 102 0 O 0 87.9 486
05:10:48 12 1001 109 0 O 0 88.3 497
05:13:47 12 1002 116 0 O 0 88.4 498
05:16:47 12 1001 121 0 O 0 88.4 500
05:19:47 12 1001 127 0 O 0 88.4 498
05:22:48 12 1001 132 0 O 0 88.3 498
05:25:49 12 1002 136 0 O 0 88.2 493
05:28:48 12 1002 140 0 O 0 88.1 497
05:31:48 12 1002 144 0 O 0 88.2 495
05:34:51 12 1002 148 0 O 0 88.6 489
05:37:47 12 1001 151 0 O 0 88.7 492
05:40:48 13 1002 153 0 O 0 88.3 493
05:43:46 13 1001 156 0 O 0 88.4 497
05:46:47 13 1001 158 0 O 0 88.3 495
05:49:49 13 1001 160 0 O 0 88.2 492
05:52:48 13 1002 162 0 O 0 87.8 492
05:55:49 13 1001 164 0 O 0 88.1 496
05:58:48 13 1001 165 0 O 0 88.2 498
06:01:48 13 1000 167 0 O 0 88.1 498
06:04:49 13 1002 168 0 O 0 88.1 495
06:07:51 13 1001 169 0 O 0 88 495
06:10:48 13 1002 171 0 O 0 88.1 495
06:13:48 13 1001 172 0 W 0 88.3 497
06:16:47 14 1002 172 0 N 0 88.3 501
06:19:47 14 1002 173 0 N 0 87.4 495
06:22:48 14 1001 174 0 N 0 86.7 495
06:25:48 14 1001 175 0 N 0 86.2 495
06:28:48 14 1001 176 0 N 0 85.8 492
06:31:47 14 1002 177 0 N 0 85.6 485
06:34:47 14 1000 177 0 N 0 85.5 488
06:37:49 15 1001 179 0 N 0 85.3 488
06:40:50 15 1001 180 0 N 0 85 486
06:43:50 15 1001 181 0 N 0 84.9 486
06:46:47 15 1002 182 0 O 0 84.4 495
06:49:51 16 1002 183 0 NW 0 84 498
06:52:49 16 1002 184 0 NO 0 83.4 492
06:55:49 16 1002 185 0 NW 0 82.3 488
06:58:48 17 1001 185 0 W 0 81.3 492
07:01:48 17 1002 186 1 NO 0 79 500
07:04:50 18 1001 186 1 NW 0 77.4 497
07:07:50 18 1001 187 1 SO 0 74.9 491
07:10:47 18 1002 187 0 NW 0 74.6 491
07:13:48 19 1001 187 0 W 0 71.1 492
07:16:48 19 1001 187 1 N 0 70.2 492
07:19:48 20 1001 187 0 S 0 67.3 486
07:22:48 20 1002 187 0 S 0 66.4 491
07:25:49 20 1001 187 1 S 0 62.3 492
07:28:49 20 1001 187 2 SW 0 62 492
07:31:49 22 1001 187 0 SO 0 58.6 483
07:34:46 23 1001 187 2 W 0 55.6 478
07:37:49 24 1001 187 1 S 0 52.7 483
07:40:50 25 1002 187 0 S 0 52.2 488
07:43:47 26 1001 187 3 0 50.7 492
07:46:48 26 1001 187 4 S 0 47.4 486
07:49:47 27 1001 187 4 S 0 45.9 486
07:52:51 27 1000 187 1 SO 0 43.7 484
07:55:47 27 1001 187 3 S 0 42.7 480
07:58:47 27 1001 188 1 W 0 42.7 477
08:01:49 27 1002 188 6 O 0 42.9 480
08:04:49 27 1000 188 2 NW 0 42 481
08:07:48 27 1002 188 1 S 0 41.4 478
08:10:50 27 1001 188 3 S 0 42 481
08:13:48 26 1001 188 4 SW 0 42.7 479
08:16:49 25 1001 189 1 S 0 45.8 477
08:19:49 24 1000 188 2 SO 0 47 480
08:22:47 24 1001 188 3 S 0 48.1 483
08:25:48 24 1001 189 3 0 48.6 477
08:28:50 24 1001 189 4 SO 0 49.3 475
08:31:50 24 1001 189 5 S 0 49.7 469
08:34:51 24 1001 189 3 SW 0 50.2 465
08:37:47 24 1001 190 7 S 0 50.2 466
08:40:50 24 1001 190 2 NW 0 49.6 474
08:43:49 24 1001 190 1 S 0 50.5 475
08:46:49 24 1000 190 7 O 0 50.8 480
08:49:48 24 1002 191 1 S 0 50.7 477
08:52:50 24 1001 191 3 SO 0 50.7 477
08:55:47 24 1001 191 7 S 0 50.8 471
08:58:47 24 1001 192 4 W 0 50.5 475
09:01:53 25 1001 193 5 SW 0 50.7 474
09:04:47 25 1001 194 5 S 0 50.5 475
09:07:48 25 1001 195 3 W 0 49.5 466
09:10:51 25 1000 196 3 SW 0 49.5 466
09:13:48 25 1001 196 3 SO 0 49.4 465
09:16:50 25 1001 197 2 SW 0 49.4 472
09:19:50 25 1001 198 1 NW 0 50.3 466
09:22:49 25 1002 198 1 SO 0 50.3 471
09:25:49 25 1001 199 4 SO 0 49.3 465
09:28:48 25 1001 199 3 S 0 49.1 467
09:31:53 25 1000 199 11 S 0 49.4 463
09:34:48 25 1001 200 0 W 0 49.5 469
09:37:48 25 1000 200 3 W 0 49.8 472
09:40:51 25 1001 200 2 SO 0 49.5 469
09:43:48 25 1000 200 2 S 0 48.9 464
09:46:49 25 1000 201 0 O 0 49.2 460
09:49:49 26 1000 201 1 SW 0 50.2 463
09:52:50 26 1001 201 5 SW 0 49.3 462
09:55:47 26 1001 201 2 N 0 49.3 465
09:58:52 26 1001 201 4 SW 0 50 462
10:01:48 26 1000 201 1 W 0 49.9 469
10:04:49 26 1000 201 7 SO 0 48.5 463
10:07:48 26 999 201 2 O 0 48.8 466
10:10:48 26 1000 202 2 O 0 49.7 459
10:13:47 26 1001 202 2 O 0 50.3 457
10:16:47 26 1000 202 1 SW 0 49.6 459
10:19:47 27 1001 202 3 O 0 49.6 463
10:22:49 27 1000 202 5 NW 0 49.8 471
10:25:47 27 1000 202 0 W 0 48.9 463
10:28:48 27 1000 203 7 W 0 48.3 459
10:31:47 27 1000 203 5 S 0 47.9 453
10:34:48 27 1000 203 2 SW 0 48.4 453
10:37:51 27 1000 203 5 SW 0 48.2 455
10:40:49 27 1000 203 1 SW 0 47.5 453
10:43:48 27 1000 204 0 O 0 47.5 463
10:46:47 27 999 204 7 S 0 47.4 456
10:49:49 27 999 204 2 SO 0 48 460
10:52:47 27 1001 204 1 NO 0 48.9 451
10:55:50 27 1000 205 3 SW 0 48.1 451
10:58:51 27 1000 205 0 NW 0 47.7 453
11:01:49 27 1000 205 3 S 0 47.9 460
11:04:51 28 1000 205 1 NW 0 48.4 457
11:07:47 28 1000 206 2 S 0 48.5 456
11:10:49 28 1001 206 1 SW 0 47 454
11:13:48 28 1001 206 4 S 0 47.3 451
11:16:50 28 1000 206 4 NW 0 47.7 452
11:19:49 29 1000 206 3 SO 0 47.8 460
11:22:33 27 1000 207 3 S 0 40 459
11:25:48 29 1000 207 0 SW 0 45.6 457
11:28:47 29 999 207 6 S 0 44.8 451
11:31:47 29 1000 208 0 NW 0 45.3 446
11:34:46 29 1000 208 5 S 0 46.9 447
11:37:47 29 1001 209 2 W 0 45.2 445
11:40:50 30 1000 209 6 NW 0 46.1 445
11:43:50 30 1000 209 3 SW 0 46.1 445
11:46:46 30 1000 210 1 W 0 45.4 444
11:49:47 31 1000 210 2 O 0 44.7 448
11:52:47 31 1000 211 9 S 0 43.6 445
11:55:48 31 1000 211 3 S 0 43.3 442
11:58:48 32 1000 211 2 NO 0 42.3 439
12:01:46 32 999 212 2 S 0 42.1 436
12:04:50 32 1000 213 1 SW 0 41.3 445
12:07:49 33 999 213 2 NW 0 41.2 441
12:10:48 33 999 214 6 NO 0 38.6 442
12:13:49 33 1000 214 9 W 0 38 430
12:16:48 33 1000 214 8 O 0 38.2 430
12:19:50 33 1000 215 4 S 0 38.8 439
12:22:47 33 999 215 2 O 0 38.8 444
12:25:47 33 999 215 2 W 0 37.7 445
12:28:50 34 1000 216 3 W 0 38.7 442
12:31:48 34 1000 216 4 O 0 38.5 442
12:34:47 34 999 217 5 SO 0 37.8 443
12:37:49 34 999 217 3 SO 0 36 442
12:40:48 34 999 217 1 SO 0 36.1 434
12:43:50 34 1000 218 2 SW 0 36.4 439
12:46:46 34 999 218 3 S 0 36.3 436
12:49:49 35 1000 219 9 S 0 35.4 442
12:52:49 35 1000 219 4 W 0 35.5 436
12:55:48 35 999 219 2 SO 0 35.9 440
12:58:48 35 999 220 1 W 0 36.8 430
13:01:51 36 1000 220 1 NW 0 34.7 430
13:04:48 35 999 221 8 W 0 34.4 425
13:07:47 35 999 221 3 W 0 35.5 427
13:10:50 35 999 221 1 S 0 35.7 428
13:13:49 36 999 222 6 NW 0 35 430
13:16:48 36 999 222 3 NO 0 34.2 425
13:19:52 36 1000 222 4 SO 0 33.6 427
13:22:48 36 1000 223 3 S 0 33.8 427
13:25:47 36 999 224 7 W 0 33 430
13:28:46 36 999 224 5 S 0 33.1 430
13:31:49 36 1000 224 2 NW 0 34.4 436
13:34:46 36 999 225 4 W 0 34.6 442
13:37:47 36 999 225 3 SO 0 34.8 433
13:40:49 36 999 225 2 N 0 33.6 422
13:43:47 36 998 226 3 W 0 33.8 417
13:46:46 37 999 227 3 NO 0 34 415
13:49:46 37 999 228 2 O 0 33.5 422
13:52:50 37 999 229 2 W 0 33.2 428
13:55:47 37 999 230 1 W 0 32.1 421
13:58:48 37 999 231 1 NW 0 32.6 422
14:01:48 37 999 232 5 S 0 32.4 424
14:04:49 37 999 232 4 W 0 32.3 424
14:07:47 37 999 233 3 S 0 32.1 424
14:10:47 37 999 233 2 SW 0 31.4 421
14:13:48 37 999 234 2 S 0 31.4 424
14:16:47 37 999 237 2 NW 0 32.3 421
14:19:50 37 998 238 3 SO 0 32.2 424
14:22:47 37 999 238 10 S 0 31.6 426
14:25:48 37 999 239 4 S 0 30.8 424
14:28:48 36 999 239 6 SW 0 31 421
14:31:47 36 999 240 7 SW 0 31.7 413
14:34:48 36 999 240 3 SO 0 31.8 412
14:37:47 36 998 240 1 SW 0 31.9 416
14:40:47 37 998 241 0 N 0 32.6 419
14:43:46 37 999 241 3 S 0 32.6 419
14:46:47 37 998 241 4 W 0 31.7 412
14:49:50 37 998 242 6 W 0 30.3 413
14:52:45 37 999 242 0 O 0 29.6 413
14:55:48 37 999 242 4 SW 0 29.8 419
14:58:49 37 999 242 5 SO 0 29.5 415
15:01:49 37 999 242 4 S 0 29.5 422
15:04:46 37 998 243 4 W 0 29.6 419
15:07:47 37 999 243 2 S 0 29.8 419
15:10:49 37 998 243 1 NW 0 29.6 413
15:13:50 37 998 243 2 NW 0 29.7 418
15:16:49 38 998 243 4 SO 0 28.8 410
15:19:48 38 998 244 5 NW 0 28.3 413
15:22:49 37 998 244 4 NW 0 28.6 401
15:25:47 37 998 244 3 W 0 29.1 404
15:28:48 37 998 244 3 SW 0 28.9 404
15:31:47 37 998 244 5 W 0 29.5 413
15:34:49 37 999 244 4 NW 0 30 407
15:37:49 37 998 245 2 SO 0 30.9 410
15:40:47 37 999 245 3 SW 0 30.8 408
15:43:46 38 998 245 1 S 0 30.2 407
15:46:48 38 998 245 3 SO 0 29.8 407
15:49:48 38 998 245 3 S 0 29.7 413
15:52:46 38 998 245 1 O 0 29.3 413
15:55:48 38 998 245 3 SO 0 30.5 407
15:58:49 38 998 245 2 NW 0 30.3 406
16:01:49 38 998 245 3 SW 0 29.4 406
16:04:49 37 999 245 2 NW 0 29.7 404
16:07:49 38 998 245 2 W 0 30.5 407
16:10:48 37 998 245 5 W 0 29.9 404
16:13:48 37 998 245 2 SW 0 29.5 406
16:16:48 37 998 246 4 NW 0 30.5 407
16:19:48 37 998 246 3 S 0 30.8 406
16:22:46 37 998 246 1 S 0 30.9 406
16:25:48 37 998 245 3 SO 0 30.8 404
16:28:46 37 998 246 0 W 0 30.9 404
16:31:48 38 998 246 3 W 0 30.2 406
16:34:48 38 998 246 6 W 0 30.1 407
16:37:49 37 998 246 3 W 0 30.4 404
16:40:48 37 998 246 3 SW 0 31.2 407
16:43:49 38 998 246 2 SW 0 31.8 404
16:46:48 38 998 246 1 N 0 31 407
16:49:48 38 998 246 2 O 0 29.7 407
16:52:48 38 998 246 3 W 0 30.3 407
16:55:48 38 998 246 5 W 0 29.8 407
16:58:48 37 998 246 1 W 0 29.2 407
17:01:47 37 998 246 5 W 0 30.2 404
17:04:49 37 998 246 2 NW 0 30.2 404
17:07:50 37 998 246 5 NW 0 29.7 404
17:10:48 37 998 246 1 SO 0 30.3 405
17:13:49 37 998 246 2 NW 0 30.6 407
17:16:50 37 998 246 1 NW 0 29.6 405
17:19:47 36 998 246 2 S 0 30.1 406
17:22:50 36 998 246 4 NW 0 31.2 410
17:25:48 36 998 246 3 NW 0 30.7 407
17:28:47 36 998 246 0 S 0 31.8 403
17:31:48 37 998 246 5 W 0 32.1 407
17:34:48 37 998 246 2 SO 0 31.1 404
17:37:50 38 998 246 2 W 0 30.4 407
17:40:46 38 998 246 0 S 0 30.7 404
17:43:48 38 998 246 8 NW 0 30.4 403
17:46:47 38 998 246 1 SO 0 28.7 410
17:49:49 37 998 246 2 SO 0 28.7 406
17:52:49 37 998 245 2 NW 0 29.7 416
17:55:49 37 998 246 4 NW 0 30.1 404
17:58:46 37 998 245 4 S 0 29.2 407
18:01:49 37 997 245 1 NW 0 29 407
18:04:48 36 998 245 2 W 0 29.5 403
18:07:48 36 998 244 1 SO 0 30.3 404
18:10:47 36 998 244 3 W 0 31.2 407
18:13:49 36 998 243 2 SW 0 31.7 407
18:16:47 36 998 244 1 S 0 31.2 410
18:19:50 35 998 243 4 NW 0 31.1 413
18:22:46 35 998 244 0 S 0 31 412
18:25:49 35 998 244 0 NW 0 32.3 413
18:28:49 35 998 244 6 NW 0 32.8 415
18:31:48 35 998 243 1 S 0 32.6 416
18:34:47 35 998 243 0 O 0 33.4 410
18:37:50 35 998 240 1 NO 0 32.8 409
18:40:48 34 998 242 1 NW 0 33 406
18:43:51 34 998 242 0 SO 0 34.2 410
18:46:49 34 997 239 0 SW 0 34.7 406
18:49:47 34 998 233 0 W 0 34.8 407
18:52:48 33 998 237 0 W 0 35.6 407
18:55:50 32 998 227 1 W 0 37 406
18:58:49 32 998 223 1 NW 0 38.2 403
19:01:47 31 998 222 0 NW 0 39.1 406
19:04:48 31 998 216 0 O 0 40.3 410
19:07:49 31 998 215 2 NW 0 41.7 413
19:10:50 30 998 219 2 NW 0 42.1 410
19:13:48 30 998 221 0 NW 0 41.9 407
19:16:48 30 998 223 0 NW 0 42.5 407
19:19:47 30 998 223 0 NW 0 43 409
19:22:47 30 998 222 2 NW 0 43.3 418
19:25:48 30 997 220 2 W 0 43.8 416
19:28:50 30 998 218 0 W 0 44.2 413
19:31:49 30 998 221 2 NW 0 44.7 415
19:34:49 30 997 222 0 NW 0 44 409
19:37:49 30 998 222 3 N 0 44.9 416
19:40:49 30 998 221 7 S 0 45.2 407
19:43:46 29 998 220 9 W 0 45.4 410
19:46:49 29 998 219 9 NO 0 45 407
19:49:48 29 998 217 4 NW 0 45.3 415
19:52:48 29 998 215 5 NW 0 45.5 409
19:55:49 29 998 213 2 NW 0 45.9 409
19:58:47 29 998 211 4 N 0 46.4 404
20:01:48 29 998 208 5 NO 0 47 408
20:04:48 29 998 206 3 NO 0 46.9 407
20:07:50 29 998 203 3 NW 0 46.6 410
20:10:48 29 998 202 7 NO 0 46.6 411
20:13:47 29 998 201 0 N 0 46.8 407
20:16:50 28 998 200 1 NW 0 47.2 403
20:19:51 28 998 198 3 NO 0 47.5 409
20:22:46 28 998 197 6 N 0 47.9 412
20:25:48 28 998 195 6 NO 0 49.3 416
20:28:46 28 998 194 1 O 0 50.1 410
20:31:48 28 997 194 14 NO 0 51.1 407
20:34:48 27 998 194 2 SO 0 51.5 404
20:37:48 27 998 194 1 O 0 51.9 409
20:40:48 27 998 193 2 NW 0 52.9 407
20:43:48 27 998 193 4 O 0 53 407
20:46:47 27 998 192 5 0 53.5 403
20:49:47 27 998 191 3 N 0 53.6 406
20:52:48 27 998 189 4 NO 0 54.2 410
20:55:47 27 997 187 4 NO 0 54.6 415
20:58:46 26 998 184 3 O 0 55 415
21:01:49 26 998 181 4 N 0 55.4 412
21:04:49 26 998 177 6 NW 0 55.6 410
21:07:49 26 997 172 5 NO 0 56.3 412
21:10:49 26 998 166 3 NW 0 56.6 407
21:13:48 26 998 158 2 NO 0 56.8 406
21:16:47 26 997 151 6 NO 0 57 407
21:19:49 26 998 142 4 NW 0 57.7 409
21:22:46 26 998 134 6 N 0 58.6 409
21:25:48 25 998 125 3 NW 0 58.8 410
21:28:47 25 998 116 4 NO 0 59.3 410
21:31:47 25 997 108 7 0 59.9 407
21:34:47 25 998 99 3 NO 0 60.4 403
21:37:48 25 998 90 4 N 0 60.7 406
21:40:47 25 998 80 5 N 0 61.3 410
21:43:49 25 998 68 5 O 0 61.9 422
21:46:47 25 998 54 3 O 0 62.2 407
21:49:48 24 998 43 3 NW 0 62.7 407
21:52:48 24 998 35 6 N 0 62.9 401
21:55:46 24 998 28 4 0 62.9 410
21:58:47 24 998 22 4 NO 0 63.2 413
22:01:48 24 998 17 5 N 0 63.5 406
22:04:51 24 998 13 3 N 0 63.8 409
22:07:46 24 998 9 2 N 0 64.6 410
22:10:47 24 998 7 2 NW 0 65.1 413
22:13:44 23 998 5 4 N 0 64.9 415
22:16:46 23 998 3 4 NO 0 65.4 416
22:19:45 23 998 0 3 N 0 66.2 418
22:22:48 23 998 0 1 NW 0 66.9 415
22:25:45 23 998 0 3 NO 0 67.3 413
22:28:48 23 998 0 3 SO 0 67.9 407
22:31:49 23 998 0 2 NO 0 68 409
22:34:49 23 998 0 3 NO 0 68.2 412
22:37:47 23 998 0 6 O 0 68.8 410
22:40:48 23 998 0 5 N 0 69.4 412
22:43:46 23 998 0 1 O 0 69.6 415
22:46:49 23 998 0 3 NW 0 70.3 415
22:49:48 23 997 0 3 SO 0 70.3 421
22:52:48 23 998 0 6 N 0 70.2 418
22:55:46 23 997 0 5 NO 0 70.1 413
22:58:47 23 997 0 5 N 0 69.9 406
23:01:48 22 998 0 4 N 0 70 404
23:04:48 22 998 0 3 N 0 70.2 409
23:07:47 22 998 0 3 NO 0 70.4 412
23:10:48 22 998 0 1 NO 0 70.5 412
23:13:47 22 996 0 6 NO 0 70.8 416
23:16:45 22 998 0 3 O 0 71.3 413
23:19:46 22 997 0 5 N 0 71.8 409
23:22:48 22 997 0 4 NO 0 72 409
23:25:47 22 998 0 0 N 0 72 410
23:28:49 22 998 0 4 NO 0 72.5 410
23:31:47 22 998 0 2 O 0 72.8 410
23:34:47 21 997 0 0 N 0 72.7 406
23:37:48 21 998 0 3 O 0 72.9 410
23:40:49 21 998 0 2 NW 0 73.3 410
23:43:47 21 997 0 4 NO 0 73.3 409
23:46:48 21 998 0 2 O 0 73.5 409
23:49:46 21 997 0 4 NO 0 73.6 413
23:52:46 21 997 0 2 N 0 73.4 413
23:55:47 21 997 0 0 NW 0 73.3 418
23:58:46 21 998 0 3 NO 0 73.4 411

Letzte Änderung : 22-Jul-2022
Copyright Jens Köhler, Wolfsburg, Obere Dorfstraße 10d